Valdosta, GA

1:04 AM EDT on June 23, 2017 (GMT -0400)
Moody Air Force Base

Weather History for KVAD - March, 2013

Change the Weather History Date:

Saturday, March 30, 2013

  Actual Average Record
Temperature  
Mean Temperature 60 °F -  
Max Temperature 76 °F 74 °F 88 °F (2017)
Min Temperature 44 °F 53 °F 42 °F (2015)
Degree Days  
Heating Degree Days 6    
Growing Degree Days 10 (Base 50)    
Moisture  
Dew Point 45 °F    
Average Humidity 57    
Maximum Humidity 94    
Minimum Humidity 35    
Precipitation  
Precipitation 0.00 in - - ()
Sea Level Pressure  
Sea Level Pressure 30.18 in    
Wind  
Wind Speed 6 mph (SSW)    
Max Wind Speed 15 mph    
Max Gust Speed -    
Visibility 10 miles    
Events Rain    
Averages and records for this station are not official NWS values.
T = Trace of Precipitation, MM = Missing Value Source: NWS Daily Summary

Daily Weather History Graph

Daily Weather History Graph

Search for Another Location

Airport or City:

Trip Planner

Search our weather history database for the weather conditions in past years. The results will help you decide how hot, cold, wet, or windy it might be!

Date:

Astronomy

Mar. 30, 2013 Rise Set
Actual Time 7:23 AM EDT 7:50 PM EDT
Civil Twilight 6:59 AM EDT 8:15 PM EDT
Nautical Twilight 6:31 AM EDT 8:43 PM EDT
Astronomical Twilight 6:02 AM EDT 9:12 PM EDT
Moon 11:40 PM EDT (3/30) 9:32 AM EDT (3/30)
Length of Visible Light 13h 15m
Length of Day
12h 27m
Waning Gibbous, 86% of the Moon is Illuminated
Mar 30
Waning Gibbous
Apr 3
Last Quarter
Apr 10
New
Apr 18
First Quarter
Apr 25
Full

Hourly Weather History & Observations

Time (EDT) Temp. Windchill Dew Point Humidity Pressure Visibility Wind Dir Wind Speed Gust Speed Precip Events Conditions
12:58 AM 50.7 °F - 43.7 °F 77% 30.25 in 10.0 mi SSW 4.6 mph - N/A   Clear
1:58 AM 54.9 °F - 40.6 °F 59% 30.24 in 10.0 mi West 3.5 mph - N/A   Mostly Cloudy
2:58 AM 53.1 °F - 40.8 °F 63% 30.23 in 10.0 mi West 3.5 mph - N/A   Partly Cloudy
3:58 AM 47.1 °F - 41.5 °F 81% 30.22 in 10.0 mi SSE 3.5 mph - N/A   Clear
4:58 AM 44.4 °F - 41.7 °F 90% 30.21 in 10.0 mi SSE 2.3 mph - N/A   Clear
5:58 AM 44.8 °F 42.4 °F 42.1 °F 90% 30.22 in 10.0 mi South 4.6 mph - N/A   Clear
6:58 AM 44.6 °F 43.1 °F 41.9 °F 90% 30.23 in 10.0 mi South 3.5 mph - N/A   Clear
7:58 AM 44.8 °F 43.3 °F 43.2 °F 94% 30.24 in 10.0 mi South 3.5 mph - N/A   Clear
8:58 AM 53.2 °F - 48.2 °F 83% 30.25 in 10.0 mi South 5.8 mph - N/A   Clear
9:58 AM 60.6 °F - 48.9 °F 65% 30.25 in 10.0 mi SSW 8.1 mph - N/A   Clear
10:58 AM 67.1 °F - 49.6 °F 53% 30.25 in 10.0 mi Variable 5.8 mph - N/A   Clear
11:58 AM 69.1 °F - 48.9 °F 49% 30.24 in 10.0 mi SSW 5.8 mph - N/A   Partly Cloudy
12:58 PM 71.2 °F - 45.3 °F 39% 30.22 in 10.0 mi Variable 6.9 mph - N/A   Scattered Clouds
1:58 PM 72.5 °F - 45.7 °F 38% 30.19 in 10.0 mi South 9.2 mph - N/A   Scattered Clouds
2:55 PM 73.9 °F - 44.8 °F 35% 30.15 in 10.0 mi SSW 10.4 mph - N/A   Clear
3:58 PM 74.5 °F - 45.3 °F 35% 30.13 in 10.0 mi West 8.1 mph - N/A   Clear
4:58 PM 75.2 °F - 45.5 °F 35% 30.11 in 10.0 mi South 5.8 mph - N/A   Partly Cloudy
5:55 PM 73.4 °F - 46.4 °F 38% 30.10 in 10.0 mi SW 10.4 mph - N/A Rain Light Rain
5:58 PM 73.4 °F - 46.4 °F 38% 30.11 in 10.0 mi SW 10.4 mph - N/A Rain Light Rain
6:02 PM 73.4 °F - 46.4 °F 38% 30.10 in 10.0 mi SW 9.2 mph - N/A   Clear
6:58 PM 73.6 °F - 47.3 °F 39% 30.11 in 10.0 mi SW 8.1 mph - 0.00 in   Partly Cloudy
7:58 PM 69.3 °F - 48.2 °F 47% 30.11 in 10.0 mi SSW 5.8 mph - N/A   Clear
8:58 PM 66.2 °F - 49.6 °F 55% 30.13 in 10.0 mi SSW 15.0 mph - N/A   Clear
9:58 PM 62.8 °F - 45.5 °F 53% 30.14 in 10.0 mi SSW 10.4 mph - N/A   Clear
10:58 PM 60.4 °F - 40.6 °F 48% 30.14 in 10.0 mi South 8.1 mph - N/A   Scattered Clouds
11:58 PM 58.6 °F - 41.2 °F 52% 30.14 in 10.0 mi SSW 6.9 mph - N/A   Overcast